Wind_Speed
5 5 5 4 3 5 15 16 16 17 16 22 22 14 17 3 13 13 25 19 26 21 19 17 18 19 19 19 19 18 17 18 17 20 21 22 21 21 20 19 20 20 19 19 19 17 16 16 15
7 8 6 1 4 2 12 15 17 16 12 23 19 21 23 25 26 20 29 26 24 24 20 18 18 17 18 17 19 19 18 18 19 20 21 22 21 20 20 18 19 19 18 18 17 16 16 14 16
8 6 2 2 3 8 14 16 16 14 19 16 10 20 18 21 25 16 29 28 24 24 21 19 18 17 16 17 18 19 18 18 19 20 20 21 21 20 19 18 18 17 16 16 15 15 14 13 16
3 3 5 4 7 17 18 18 16 21 20 20 20 15 19 25 35 32 25 23 22 22 20 19 18 16 16 16 17 18 18 19 19 19 20 21 20 19 18 17 16 15 13 14 13 12 12 13 16
2 3 1 4 7 20 20 17 13 8 18 13 22 18 22 24 24 32 26 27 30 23 20 18 17 17 16 16 16 17 16 17 18 18 19 19 19 18 18 17 16 15 15 14 13 14 14 15 15
2 2 1 6 16 23 23 23 4 15 19 20 20 21 18 22 20 32 33 19 24 27 19 17 15 14 15 15 15 16 16 16 17 17 17 18 17 18 17 17 16 15 14 13 13 14 15 15 14
2 1 8 16 17 19 23 22 12 14 22 21 20 23 17 17 20 31 28 27 25 23 20 18 15 14 14 15 15 15 16 15 15 16 17 16 17 16 17 17 16 14 13 13 13 14 15 16 19
3 3 7 16 14 13 15 20 16 16 8 24 19 15 12 17 24 37 27 25 26 20 22 21 17 16 16 13 14 14 15 15 14 16 18 20 18 16 17 16 15 13 12 12 13 13 15 17 15
10 1 4 14 15 11 17 19 12 11 15 11 14 24 22 22 25 31 29 25 19 20 19 19 18 20 19 15 14 14 14 14 12 14 13 13 20 16 13 14 15 14 13 11 9 8 10 11 11
7 3 9 6 5 7 8 7 16 9 12 17 17 24 24 23 21 22 23 24 23 19 12 15 17 25 20 14 16 13 12 8 5 10 12 9 12 14 13 15 14 10 8 6 4 1 3 6 4
6 7 13 15 19 18 12 5 16 13 13 21 22 19 17 19 19 17 25 22 27 21 17 13 20 21 17 15 17 17 16 10 9 4 12 14 13 10 9 10 15 4 3 5 5 5 4 4 7
3 15 10 5 11 16 7 11 13 11 18 22 20 19 17 17 15 18 25 25 19 21 21 16 12 13 11 15 11 15 15 13 10 6 8 10 20 2 9 8 16 11 6 9 11 10 8 13 15
10 15 11 13 13 7 16 13 11 5 20 22 20 17 16 16 13 23 21 22 31 27 24 19 13 11 8 7 15 12 10 15 10 8 5 4 16 8 8 8 7 8 10 11 10 7 8 10 9
11 14 14 16 14 11 16 5 2 1 18 20 19 18 16 15 17 23 19 21 16 18 24 20 16 12 6 11 14 11 11 12 12 10 5 12 13 5 5 3 10 12 12 8 7 7 7 10 11
9 14 12 16 14 7 12 4 2 8 11 19 18 16 15 14 20 23 20 19 19 19 18 24 19 12 10 10 16 11 19 13 16 14 9 7 2 15 4 9 13 7 7 8 4 6 7 10 9
12 8 8 10 15 12 10 7 6 7 3 17 18 16 15 13 18 19 26 20 18 22 18 21 23 18 12 10 10 11 10 15 13 15 11 3 3 7 14 10 11 2 2 4 4 4 4 6 7
12 11 10 12 12 15 9 11 14 10 7 10 14 15 14 14 17 18 16 21 28 20 16 20 23 19 14 10 3 9 13 13 13 14 9 4 6 10 7 9 6 5 13 8 12 6 4 3 6
13 14 7 14 15 16 13 10 15 6 7 13 15 14 12 15 14 21 20 19 24 21 15 17 26 21 14 7 9 10 8 9 10 11 12 7 3 10 8 5 3 9 16 13 7 8 5 3 6
10 4 7 7 11 17 13 14 18 17 14 14 8 11 6 13 20 23 25 15 20 21 18 13 21 20 15 12 13 11 7 9 15 13 11 9 1 1 5 7 6 8 12 9 7 9 12 5 6
10 17 5 9 13 10 15 14 17 17 10 7 4 5 9 6 16 18 25 23 25 25 23 16 18 16 18 11 7 9 9 3 6 9 9 9 5 1 5 4 7 12 7 5 4 6 11 4 3
19 16 9 5 12 23 16 10 13 15 7 10 4 4 9 10 2 0 25 26 26 29 26 21 18 18 14 11 12 10 10 8 6 6 10 9 8 5 3 5 5 11 13 4 10 6 10 13 12
13 4 20 19 4 2 14 6 11 12 15 19 15 19 17 15 3 16 17 26 30 28 30 24 19 18 14 13 11 14 14 13 17 14 12 10 8 6 4 2 2 4 1 6 10 6 9 12 17
13 6 7 14 4 6 15 5 6 12 17 23 22 25 23 15 18 12 12 22 27 33 32 28 23 19 15 14 10 12 9 4 6 9 8 13 9 7 5 5 3 5 6 5 4 7 12 13 19
2 7 13 11 4 5 24 9 6 11 26 20 21 23 25 19 17 14 5 14 21 24 26 28 24 17 17 13 13 12 6 6 6 13 11 14 11 12 10 8 7 7 5 4 3 5 8 10 8
6 8 6 5 9 11 14 11 8 27 22 25 24 23 23 20 20 15 12 8 9 17 22 27 25 20 16 15 12 9 10 9 9 9 9 13 16 17 17 11 8 8 7 2 4 5 5 7 8
10 14 10 10 2 10 16 10 12 30 20 19 25 24 23 23 20 20 25 23 14 18 3 29 26 23 19 18 15 11 9 11 10 12 8 11 16 17 19 16 10 9 7 3 6 7 9 9 8
13 13 20 23 11 12 2 3 18 9 16 17 21 20 22 23 22 19 20 27 30 27 18 25 27 24 22 20 17 14 12 8 10 8 11 10 7 11 10 12 10 10 8 6 5 9 7 7 8
16 11 10 11 8 11 4 8 3 3 14 8 24 22 22 20 22 18 26 30 30 28 28 20 28 25 22 21 19 14 14 11 7 8 10 7 4 5 15 11 10 11 10 8 8 9 10 9 8
11 14 11 12 11 10 4 6 8 10 6 14 16 23 20 23 20 19 19 26 26 22 24 26 28 25 22 21 22 19 18 17 12 10 9 9 8 8 10 10 11 12 10 9 9 11 8 5 7
15 15 16 9 10 11 12 6 19 18 13 10 31 15 22 21 19 16 17 15 23 31 29 12 30 24 25 22 22 20 17 17 17 15 13 12 10 11 12 13 11 11 13 13 11 9 11 10 9
Wind_Direction
224 206 244 278 239 218 100 106 100 100 82 67 67 84 68 41 80 97 124 134 115 117 115 104 104 103 98 100 99 101 105 108 106 102 99 96 97 97 96 96 96 94 96 92 89 88 86 85 93
221 243 254 195 254 167 110 113 110 98 106 68 19 83 80 86 95 116 112 112 110 121 113 110 105 100 98 95 94 97 101 101 99 99 100 98 98 98 97 97 96 94 95 94 88 90 85 89 96
240 283 304 286 257 124 123 117 107 125 125 119 135 92 97 109 107 105 112 113 112 106 110 113 108 101 94 90 90 95 97 97 98 102 104 102 102 101 99 99 99 97 96 98 93 87 85 87 99
348 235 214 254 226 130 122 118 129 125 89 89 105 79 87 99 114 121 131 132 123 118 113 112 108 105 100 93 92 93 94 94 99 102 107 105 103 101 100 100 100 94 99 97 83 85 94 87 100
71 231 233 265 238 114 109 100 97 101 93 95 105 103 92 104 119 126 130 128 125 116 116 115 115 110 104 102 97 96 97 100 100 102 106 108 106 103 100 98 96 99 98 103 94 91 94 89 99
308 25 244 221 122 112 102 96 355 123 129 115 101 104 106 119 121 130 121 106 125 120 119 119 118 118 111 105 103 99 101 103 106 109 112 112 108 105 100 98 94 99 105 105 98 91 88 90 100
274 101 241 117 113 119 121 136 94 80 117 115 120 115 125 130 127 112 118 128 101 112 123 122 119 120 115 111 109 108 110 104 108 114 118 120 116 111 104 104 104 103 102 98 96 94 93 96 103
88 6 286 116 118 125 117 96 128 104 163 109 129 126 122 141 122 126 125 115 117 119 120 129 128 131 121 116 114 113 114 109 117 129 129 123 118 114 110 116 113 110 102 101 104 100 109 112 111
126 264 224 123 117 103 117 107 39 194 131 119 124 133 150 138 133 112 112 121 116 113 137 141 148 144 130 124 130 123 114 114 116 124 112 119 119 122 126 134 117 113 103 107 112 117 117 124 129
158 98 321 317 107 114 101 60 160 131 114 110 122 111 139 133 132 132 142 125 119 115 118 144 138 136 133 126 133 131 137 126 139 100 115 123 171 128 146 125 115 108 102 103 122 135 214 181 172
129 141 195 202 256 127 130 170 142 195 125 123 124 138 145 137 137 138 115 146 133 141 130 103 117 110 128 140 155 154 132 127 122 143 114 125 115 133 137 126 50 218 182 56 43 27 261 352 231
108 122 153 130 62 114 88 297 67 25 127 125 137 153 145 151 154 144 125 113 125 126 127 126 105 121 133 147 158 158 162 136 142 137 143 144 92 233 197 150 175 109 114 83 102 69 71 63 69
115 140 128 132 92 81 86 45 47 108 115 124 144 160 152 156 153 125 130 120 144 140 128 119 118 116 130 110 175 147 148 141 132 156 155 126 127 162 137 153 90 118 88 84 72 83 109 93 84
161 135 127 107 103 109 105 65 35 260 128 134 151 155 167 156 140 118 123 128 138 133 127 128 126 130 94 95 119 123 134 148 142 102 71 73 139 104 181 112 106 66 70 74 108 85 110 130 115
224 140 136 138 139 123 98 46 344 296 135 144 160 165 164 150 134 130 136 136 140 138 129 132 130 132 123 125 137 144 160 153 126 95 125 25 168 109 209 67 94 107 116 150 147 160 172 133 135
184 167 152 155 142 150 168 170 205 264 275 163 166 166 153 154 142 134 139 147 142 133 139 160 139 138 149 152 148 148 164 134 129 135 163 233 61 19 346 93 106 113 357 179 87 20 74 124 128
194 193 177 158 176 161 196 129 209 259 268 218 166 158 161 155 139 133 136 144 129 136 154 131 130 136 142 156 144 132 135 152 156 157 147 111 39 57 323 328 115 9 352 98 57 33 21 324 165
214 203 189 184 170 173 161 145 170 238 260 279 151 167 159 151 139 148 158 142 136 144 157 141 139 139 153 162 141 136 154 159 146 144 126 113 72 63 176 294 28 2 59 105 47 24 355 2 333
209 183 229 125 298 171 147 151 170 185 237 257 134 169 226 169 146 164 126 122 130 144 146 146 137 143 156 154 150 174 212 158 124 136 138 107 128 16 326 18 351 50 49 60 19 345 333 311 356
262 265 175 106 303 203 156 154 176 184 213 104 80 345 339 233 164 142 142 156 150 143 156 158 154 151 172 174 140 152 160 152 125 138 146 142 165 174 184 19 21 44 27 26 326 342 350 11 356
240 265 101 81 167 249 140 141 175 178 175 112 102 322 298 297 307 179 157 162 152 154 160 171 170 171 179 174 150 156 130 144 157 149 182 174 185 209 107 72 34 25 350 270 322 335 18 3 346
242 82 135 144 256 158 189 139 186 184 192 177 175 193 215 224 247 209 179 155 164 165 168 171 176 176 178 177 176 163 178 184 189 190 187 188 193 215 191 139 321 69 81 297 319 333 20 15 13
255 180 126 105 9 45 214 91 179 184 219 206 187 203 216 209 200 205 208 174 182 164 166 171 173 177 181 183 175 185 185 212 187 180 171 181 198 211 219 189 218 279 306 251 279 326 12 31 50
255 223 178 114 93 285 251 158 173 199 222 205 202 208 203 198 223 235 317 306 162 163 160 155 163 175 179 176 183 189 171 185 223 173 177 190 188 207 218 221 211 246 267 266 280 315 356 2 42
244 243 230 233 188 235 147 190 140 208 206 197 196 201 200 194 201 208 190 195 148 195 166 156 160 166 175 174 176 184 171 164 154 157 192 205 214 212 206 206 209 245 268 335 321 308 335 333 351
195 244 247 213 301 323 327 350 160 186 199 186 184 200 194 177 194 215 153 133 198 252 350 157 160 164 182 181 177 182 188 175 179 196 218 220 218 223 191 196 207 230 241 255 285 281 292 306 335
216 223 256 280 37 278 164 183 164 179 212 192 180 189 191 184 193 203 158 165 182 217 229 164 162 169 184 181 183 178 189 199 199 175 195 220 150 155 181 195 196 212 213 221 259 274 303 304 324
257 276 235 246 241 259 283 174 237 171 352 198 176 192 189 182 188 204 161 173 184 196 205 186 164 171 182 180 177 181 180 188 194 187 194 220 211 181 188 191 195 207 219 226 257 264 278 266 274
215 248 266 288 257 247 139 214 131 101 164 279 282 187 182 182 184 193 184 168 172 167 232 191 167 171 183 181 181 181 190 189 183 195 211 205 191 181 186 202 209 210 225 227 239 265 293 256 279
254 220 240 254 259 274 292 315 127 106 87 1 277 175 170 180 182 181 177 192 179 163 194 249 159 175 183 187 183 181 193 189 184 195 205 205 211 200 192 196 216 215 216 232 231 248 265 258 253
Height
770 772 774 773 792 775 757 757 739 751 751 742 747 760 770 768 773 811 799 805 810 817 822 824 827 827 828 829 830 832 833 833 833 834 834 833 835 836 837 838 839 840 840 840 841 843 843 842 842
771 771 771 772 788 780 767 747 756 752 750 751 763 758 769 781 773 788 800 807 811 817 822 825 827 828 830 831 832 832 834 835 834 835 836 835 837 839 840 841 843 842 844 843 843 845 845 845 844
770 771 775 786 781 768 769 750 752 751 745 758 772 761 771 781 779 795 803 807 814 819 823 826 828 830 832 832 833 833 836 836 836 837 838 839 841 842 843 844 844 845 846 846 846 847 847 847 845
771 772 770 784 775 747 747 749 748 758 751 756 763 779 771 777 785 796 801 807 814 821 824 827 830 832 834 835 836 836 837 838 838 840 840 842 843 844 845 846 847 847 848 849 849 849 849 848 847
773 770 786 784 768 740 739 745 748 758 764 765 768 784 785 783 788 795 802 807 812 821 826 829 831 834 836 838 838 838 839 839 840 841 843 844 845 846 846 848 849 850 851 850 851 850 850 849 849
776 772 795 773 751 744 747 759 758 765 769 769 777 785 790 789 792 796 807 811 813 820 827 831 833 835 838 839 840 840 840 841 841 842 844 845 846 848 849 850 851 852 852 852 852 851 851 851 851
780 787 776 749 759 756 757 751 758 765 763 772 775 791 790 791 794 799 805 810 815 822 827 832 834 837 839 840 841 842 843 842 842 842 843 845 847 848 849 851 852 853 853 853 853 853 852 853 853
778 788 774 748 766 769 744 750 764 764 770 764 771 792 801 791 795 800 808 813 817 823 829 832 834 837 840 842 843 844 844 844 842 842 843 843 845 848 849 850 851 852 853 853 854 854 853 853 854
765 794 779 762 769 764 745 767 768 758 760 762 768 777 787 792 796 803 809 815 820 825 829 832 834 837 840 842 844 845 846 844 843 848 855 856 848 847 848 849 850 851 851 852 854 855 855 854 854
765 801 790 785 762 764 758 761 764 764 764 773 776 780 787 792 798 802 808 814 821 826 829 831 834 837 841 843 844 846 847 846 845 855 849 855 857 852 851 854 858 857 854 852 853 855 854 856 855
754 784 792 783 772 752 765 766 756 768 775 774 786 789 787 794 798 802 808 813 818 825 829 833 836 836 840 842 845 847 847 847 846 852 858 862 860 856 860 864 867 857 860 851 852 854 851 855 854
761 756 773 763 758 760 775 768 764 763 765 770 783 789 788 794 798 801 809 813 821 826 830 835 837 840 841 843 845 846 847 846 846 846 852 856 857 850 856 864 861 855 858 854 854 855 854 855 853
754 760 756 755 765 770 769 779 775 773 763 773 784 788 790 792 796 801 808 813 822 826 831 835 839 841 842 845 845 846 846 848 847 848 852 854 854 853 857 859 858 857 854 854 856 857 857 856 856
743 749 758 763 772 770 783 791 779 775 768 777 785 788 789 791 801 803 810 815 821 825 831 835 840 843 844 844 845 847 847 848 850 854 856 857 855 857 854 851 852 851 854 856 857 856 856 856 856
741 755 761 763 773 787 784 802 800 787 772 782 786 786 787 791 797 805 811 817 821 826 831 836 841 844 845 845 846 848 847 849 854 857 852 857 855 860 852 848 850 852 855 856 855 855 855 855 855
749 757 781 769 770 780 779 820 796 788 785 785 784 785 788 792 797 805 811 816 821 826 832 834 839 844 846 847 847 848 848 849 855 861 859 860 852 855 857 849 851 853 854 854 855 854 854 854 854
749 775 770 783 765 779 784 813 800 793 795 787 783 785 789 793 799 806 811 818 821 828 833 835 838 843 846 847 848 847 849 850 851 855 858 856 858 863 855 862 855 854 854 854 854 854 854 854 856
766 758 770 775 772 778 787 796 796 796 800 798 784 787 790 794 802 806 812 818 823 829 834 836 839 843 846 848 848 850 851 852 852 854 856 855 856 865 871 864 856 856 854 856 855 854 855 856 857
742 751 768 779 783 782 789 798 797 801 802 799 790 792 795 794 799 804 812 819 822 829 834 837 840 843 846 848 850 851 852 853 854 857 860 860 856 856 858 856 860 859 859 857 856 856 855 857 857
745 748 757 794 773 777 789 801 793 795 794 797 804 802 809 800 798 805 810 818 821 827 833 838 841 843 846 848 851 851 852 853 855 858 860 862 864 862 865 866 865 864 863 862 862 859 857 856 855
744 744 764 796 799 790 785 811 801 795 798 803 807 810 817 813 806 806 808 813 820 825 831 837 841 842 846 848 849 851 853 855 857 858 861 862 863 865 865 869 867 866 862 862 863 861 859 862 861
753 730 770 792 815 777 771 822 814 801 802 803 810 817 819 818 808 810 806 812 817 823 827 833 838 841 843 845 849 850 853 855 855 857 858 860 861 863 866 869 868 867 865 863 863 865 869 867 863
743 736 760 770 785 805 782 804 809 807 809 793 799 805 809 807 807 807 805 805 816 818 822 829 835 839 841 844 846 849 851 853 854 855 859 860 861 862 864 868 870 867 866 865 865 867 867 869 868
723 738 748 764 802 833 779 774 816 810 793 793 788 790 795 799 800 799 810 810 809 815 819 825 831 838 840 842 846 848 849 852 853 855 858 859 860 861 862 866 868 869 869 867 863 865 868 869 874
735 749 778 781 790 782 727 758 778 772 759 767 772 774 779 790 796 800 814 818 807 814 816 822 827 835 839 840 843 845 849 850 852 853 856 857 858 859 859 861 863 865 864 863 860 861 867 869 871
746 749 766 797 782 773 733 772 753 737 734 743 751 760 768 780 790 791 803 803 811 810 814 818 826 830 836 839 842 844 847 847 850 851 854 854 856 857 858 860 862 862 862 862 861 861 862 864 865
739 758 733 748 785 780 759 759 742 752 745 748 750 755 763 768 780 784 793 800 807 806 814 818 822 828 833 836 840 842 844 846 848 850 851 853 855 857 860 861 862 863 863 864 864 864 865 863 863
732 721 756 749 791 795 760 762 759 767 782 747 750 756 759 765 775 779 791 799 804 808 813 819 821 826 830 833 836 841 843 844 846 848 850 852 854 855 860 860 861 863 863 864 865 865 866 865 865
742 747 739 734 742 771 797 784 750 772 776 783 764 744 750 760 768 773 782 794 800 812 815 818 818 823 828 831 833 837 840 842 844 846 849 851 852 855 857 860 861 863 863 864 864 865 867 867 867
722 734 737 757 764 746 748 753 754 757 758 778 774 736 742 754 763 770 779 789 796 798 811 811 810 824 822 826 831 834 838 840 842 844 847 850 852 854 856 858 860 862 862 863 864 864 865 866 866